This demonstration page uses our WeatherBlox Daily Observations layout. Learn more.

Left ArrowRight Arrow

39.92423, -83.80882

Hourly Observations for March 21, 2018

Temp ( °F °C ) Dew Point ( °F °C ) Humidity (%) Winds ( mph kmh ) Pressure ( in mb ) Visibility ( mi km ) Precip ( " mm )
12:11 am 00:11 Partly Cloudy with Isolated Snow Showers 28 -2 28 -2 100 100 N 15 24 29.71 1006 3 5 N/A
12:45 am 00:45 Partly Cloudy with Isolated Snow Showers 30 -1 28 -2 93 93 N 15 24 29.71 1006 3 4 N/A
12:56 am 00:56 Partly Cloudy with Isolated Snow Showers 30 -1.1 28 -2.2 92 92 N 15 24 29.68 1005 3 4 N/A
1:05 am 01:05 Partly Cloudy with Isolated Snow Showers 30 -1 28 -2 93 93 N 14 22 29.71 1006 3 5 N/A
2:12 am 02:12 Partly Cloudy with Isolated Snow Showers 30 -1 28 -2 93 93 NNE 16 26 29.71 1006 3 5 N/A
2:20 am 02:20 Partly Cloudy with Isolated Snow Showers 30 -1 28 -2 93 93 N 15 24 29.71 1006 3 4 N/A
2:56 am 02:56 Partly Cloudy with Isolated Snow Showers 30 -1.1 28 -2.2 92 92 N 17 28 29.67 1005 2 3 N/A
3:26 am 03:26 Partly Cloudy with Isolated Snow Showers 28 -2 28 -2 100 100 N 13 20 29.71 1006 2 2 N/A
3:52 am 03:52 Partly Cloudy with Isolated Snow Showers 28 -2 28 -2 100 100 N 15 24 29.68 1005 2 3 0.01 0.25
3:56 am 03:56 Partly Cloudy with Isolated Snow Showers 29 -1.7 28 -2.2 96 96 N 14 22 29.66 1004 2 3 0.01 0.25
4:11 am 04:11 Partly Cloudy with Isolated Snow Showers 28 -2 28 -2 100 100 N 15 24 29.68 1005 4 6 N/A
4:36 am 04:36 Partly Cloudy with Isolated Snow Showers 28 -2 28 -2 100 100 N 14 22 29.68 1005 3 4 N/A
4:52 am 04:52 Partly Cloudy with Isolated Snow Showers 28 -2 27 -3 93 93 N 10 17 29.68 1005 4 6 N/A
4:56 am 04:56 Partly Cloudy with Isolated Snow Showers 29 -1.7 27 -2.8 92 92 N 13 20 29.66 1005 4 6 N/A
5:56 am 05:56 Partly Cloudy with Isolated Snow Showers 29 -1.7 27 -2.8 92 92 N 12 19 29.67 1005 8 13 N/A
6:56 am 06:56 Partly Cloudy with Isolated Snow Showers 29 -1.7 27 -2.8 92 92 N 12 19 29.70 1006 7 11 N/A
7:56 am 07:56 Partly Cloudy with Isolated Snow Showers 29 -1.7 27 -2.8 92 92 N 15 24 29.72 1006 9 14 N/A
8:56 am 08:56 Sunny 30 -1.1 27 -2.8 88 88 N 14 22 29.75 1007 9 14 N/A
9:56 am 09:56 Partly Cloudy with Isolated Snow Showers 30 -1.1 27 -2.8 88 88 N 15 24 29.78 1009 9 14 N/A
10:56 am 10:56 Partly Cloudy with Isolated Snow Showers 31 -0.6 27 -2.8 85 85 N 15 24 29.81 1010 8 13 N/A
11:56 am 11:56 Sunny 32 undefined 27 -2.8 82 82 N 15 24 29.85 1011 10 16 N/A
12:56 pm 12:56 Partly Cloudy with Isolated Snow Showers 31 -0.6 27 -2.8 85 85 N 17 28 29.88 1012 6 10 N/A
1:56 pm 13:56 Sunny 32 undefined 25 -3.9 75 75 N 22 35 29.90 1012 10 16 N/A
2:56 pm 14:56 Partly Cloudy with Isolated Snow Showers 32 undefined 27 -2.8 82 82 N 18 30 29.92 1013 5 8 N/A
3:56 pm 15:56 Sunny 33 0.6 25 -3.9 72 72 N 15 24 29.96 1015 10 16 N/A
4:56 pm 16:56 Sunny 35 1.7 25 -3.9 67 67 NNW 13 20 29.98 1015 10 16 N/A
5:56 pm 17:56 Sunny 35 1.7 24 -4.4 64 64 NNW 15 24 30.01 1016 10 16 N/A
6:56 pm 18:56 Sunny 35 1.7 24 -4.4 64 64 NW 12 19 30.05 1018 10 16 N/A
7:56 pm 19:56 Clear 34 1.1 22 -5.6 61 61 NNW 14 22 30.08 1019 10 16 N/A
9:56 pm 21:56 Clear 33 0.6 21 -6.1 61 61 N 9 15 30.13 1020 10 16 N/A
10:56 pm 22:56 Clear 32 undefined 20 -6.7 61 61 NW 6 9 30.14 1021 10 16 N/A
11:56 pm 23:56 Clear 29 -1.7 21 -6.1 72 72 WNW 7 11 30.16 1021 10 16 N/A

Powered by AerisWeather